Temp
73 77 80 80 80 80 80 80 80 79 79 79 80 80 79 79 79 79 79 79 79 80 79 79 79 79 79 79 79 78 78 79 79 79 78 79 78 77 77 77 77 74 77
77 79 80 80 80 80 80 80 79 79 79 79 79 79 79 79 79 79 79 79 79 80 80 80 80 79 79 79 79 78 79 78 78 78 78 78 77 77 77 76 76 75 76
77 80 79 79 80 80 79 79 79 78 78 79 79 79 79 79 79 79 79 79 80 80 80 80 80 79 79 79 78 78 78 79 77 77 77 70 72 77 77 76 76 75 75
79 77 77 79 79 80 79 78 78 78 78 78 79 79 79 79 79 79 79 79 80 80 80 80 80 80 79 79 79 78 78 78 78 78 71 72 75 77 77 76 75 75 75
78 77 77 79 79 79 79 79 78 78 78 79 79 79 79 79 79 78 79 79 80 80 80 80 80 79 79 79 78 78 78 78 79 75 67 67 69 76 76 75 75 75 75
78 75 78 79 79 79 79 79 78 78 78 79 79 79 79 79 78 78 79 79 80 80 80 79 79 79 79 78 78 78 78 78 75 68 67 71 68 76 76 75 75 75 74
77 75 77 79 79 79 79 79 78 78 78 78 79 79 79 78 78 78 78 79 80 79 79 79 78 78 78 78 78 77 78 78 68 66 67 68 68 76 76 75 75 75 74
76 75 76 79 79 79 79 79 78 78 78 78 78 78 78 78 78 78 78 79 79 79 79 79 78 78 77 77 77 77 78 78 74 68 68 67 73 76 76 75 75 75 74
77 75 74 75 78 79 78 78 78 78 78 78 78 77 78 78 78 78 79 80 80 79 78 78 78 77 77 77 77 77 77 77 69 69 72 67 75 76 76 75 75 75 74
76 74 73 73 74 74 74 78 78 78 78 77 77 77 77 78 78 78 77 78 80 80 79 78 78 77 77 77 77 77 77 78 69 69 70 68 76 77 76 75 75 75 74
75 74 75 73 73 73 73 76 77 79 78 77 77 77 75 73 74 75 77 77 78 78 78 78 78 77 77 77 77 77 78 71 70 71 70 74 76 77 77 76 75 75 74
70 74 75 74 75 74 77 73 73 74 73 73 73 72 71 71 71 75 76 78 78 78 78 78 77 77 77 72 71 75 71 71 70 71 69 76 77 78 77 76 75 75 74
71 71 73 75 75 73 75 72 72 71 71 71 71 71 70 71 70 72 71 72 72 76 73 74 73 74 72 72 71 70 71 71 69 70 73 77 77 78 78 76 75 75 74
72 73 74 72 73 72 71 72 71 71 70 70 70 70 68 67 67 69 69 69 70 71 71 70 70 71 71 72 72 71 71 70 68 68 70 77 76 78 78 77 76 75 75
73 74 75 75 72 72 71 71 70 71 71 71 69 69 68 67 66 68 69 69 70 70 70 69 69 69 69 70 71 72 73 71 70 68 67 75 76 77 78 78 77 76 75
76 75 78 75 74 73 72 71 73 73 71 68 68 70 70 69 68 68 69 69 68 69 69 69 69 69 68 69 70 72 73 72 71 70 68 68 76 76 77 78 77 77 76
77 76 76 76 75 73 73 71 72 73 73 71 71 70 71 70 70 70 70 69 70 69 70 69 69 69 68 70 69 70 73 73 75 71 69 68 71 75 75 77 77 77 77
81 71 75 81 77 75 75 72 74 73 73 73 72 71 73 73 71 70 71 70 72 70 69 69 68 68 68 67 67 67 70 70 72 71 69 68 68 70 74 76 76 76 77
75 71 72 77 78 77 77 73 72 72 72 73 71 71 72 73 74 72 72 70 71 71 68 68 67 67 67 68 68 67 67 68 70 70 69 69 68 69 69 74 75 75 76
70 70 71 76 78 78 77 73 72 72 73 72 71 72 73 71 73 71 71 70 71 70 69 67 67 65 66 66 70 69 66 66 67 67 69 70 69 69 69 68 70 72 75
68 68 69 70 74 75 71 70 69 73 70 71 72 74 74 74 73 71 73 71 71 69 68 68 66 66 65 66 65 66 65 66 67 66 66 65 68 69 69 67 67 68 69
67 67 69 71 70 69 73 70 72 71 71 72 72 73 74 73 73 74 74 70 69 68 66 67 66 65 66 66 64 62 61 63 65 66 65 65 66 67 68 69 68 67 67
65 66 66 67 69 70 71 70 71 71 71 70 69 70 70 72 73 72 72 68 65 64 62 63 64 66 65 65 66 64 60 59 60 63 65 65 66 65 66 68 67 68 67
65 66 66 66 66 67 67 67 68 66 66 68 69 68 68 70 70 71 70 66 65 64 64 64 66 64 65 66 65 66 65 64 61 59 62 63 63 66 65 66 66 67 67
65 64 64 65 65 66 67 66 66 65 65 66 66 66 66 67 68 69 67 66 65 65 67 69 67 67 65 67 66 64 63 62 61 60 59 61 64 64 64 64 64 64 65
65 65 64 63 63 64 64 64 63 63 64 63 63 63 63 64 64 65 67 66 65 65 65 66 69 67 66 67 66 65 64 62 60 59 58 58 59 64 64 64 63 62 63
MSLP
1012.55 1012.88 1013.08 1013.24 1013.19 1013.35 1013.63 1013.74 1013.89 1014.08 1014.24 1014.45 1014.62 1014.73 1014.84 1014.92 1015.10 1015.24 1015.34 1015.51 1015.65 1015.76 1015.97 1016.12 1016.31 1016.44 1016.57 1016.78 1016.89 1016.95 1016.98 1016.99 1016.96 1017.06 1017.07 1017.04 1017.26 1017.39 1017.50 1017.64 1017.73 1017.71 1017.66
1011.50 1012.39 1013.05 1013.35 1013.31 1013.44 1013.74 1013.87 1013.99 1014.24 1014.47 1014.66 1014.88 1014.95 1015.02 1015.11 1015.33 1015.57 1015.67 1015.72 1015.91 1016.04 1016.19 1016.45 1016.59 1016.80 1016.88 1016.98 1017.13 1017.20 1017.21 1017.26 1017.35 1017.47 1017.51 1017.50 1017.57 1017.68 1017.76 1017.81 1017.98 1018.01 1018.10
1011.70 1012.22 1012.86 1013.37 1013.51 1013.63 1013.87 1014.09 1014.22 1014.40 1014.60 1014.82 1015.00 1015.21 1015.35 1015.42 1015.66 1015.92 1016.07 1016.00 1016.12 1016.27 1016.45 1016.64 1016.80 1016.95 1017.17 1017.27 1017.40 1017.53 1017.51 1017.32 1017.67 1017.84 1017.95 1018.08 1018.00 1017.96 1018.10 1018.22 1018.28 1018.41 1018.48
1011.65 1012.46 1013.01 1013.30 1013.60 1013.84 1014.07 1014.18 1014.50 1014.72 1014.88 1015.12 1015.20 1015.39 1015.64 1015.76 1015.89 1016.14 1016.33 1016.28 1016.26 1016.49 1016.72 1016.89 1017.00 1017.10 1017.23 1017.45 1017.51 1017.61 1017.61 1017.60 1017.77 1017.89 1018.20 1018.21 1018.17 1018.22 1018.25 1018.39 1018.50 1018.53 1018.50
1012.00 1012.50 1013.14 1013.45 1013.70 1013.93 1014.17 1014.39 1014.66 1014.99 1015.20 1015.43 1015.60 1015.62 1015.84 1016.14 1016.28 1016.40 1016.57 1016.65 1016.61 1016.68 1016.89 1017.08 1017.24 1017.34 1017.40 1017.60 1017.58 1017.64 1017.67 1017.50 1017.41 1017.93 1018.25 1018.24 1018.27 1018.35 1018.52 1018.62 1018.77 1018.82 1018.78
1012.37 1012.83 1013.22 1013.81 1014.12 1014.34 1014.42 1014.58 1014.76 1015.10 1015.33 1015.49 1015.64 1015.89 1015.98 1016.22 1016.46 1016.63 1016.70 1016.83 1016.92 1016.97 1017.01 1017.23 1017.41 1017.56 1017.62 1017.72 1017.75 1017.74 1017.72 1017.72 1017.94 1018.24 1018.45 1018.36 1018.39 1018.32 1018.48 1018.60 1018.76 1018.90 1018.97
1013.14 1013.19 1013.59 1013.95 1014.20 1014.50 1014.58 1014.61 1014.78 1015.03 1015.23 1015.47 1015.58 1015.73 1015.93 1016.24 1016.54 1016.77 1016.89 1016.83 1017.05 1017.19 1017.23 1017.40 1017.56 1017.71 1017.78 1017.73 1017.75 1017.76 1017.72 1017.84 1018.35 1018.69 1018.79 1018.84 1018.72 1018.48 1018.51 1018.69 1018.79 1018.91 1018.97
1012.83 1013.27 1013.55 1013.84 1014.22 1014.36 1014.68 1014.78 1014.92 1015.22 1015.42 1015.56 1015.70 1015.83 1016.03 1016.23 1016.46 1016.72 1016.95 1017.10 1017.04 1017.22 1017.33 1017.41 1017.55 1017.71 1017.89 1017.85 1017.85 1017.86 1017.81 1017.94 1018.38 1018.67 1018.79 1018.90 1018.90 1018.86 1018.80 1018.83 1018.93 1018.97 1019.02
1012.68 1013.38 1013.67 1013.92 1014.24 1014.48 1014.73 1014.91 1015.11 1015.34 1015.55 1015.81 1015.97 1016.01 1016.23 1016.34 1016.57 1016.75 1016.77 1016.92 1016.99 1017.13 1017.28 1017.43 1017.62 1017.66 1017.74 1017.84 1017.91 1017.97 1017.98 1018.06 1018.34 1018.57 1018.71 1018.83 1018.69 1018.81 1018.93 1018.93 1018.90 1019.08 1019.10
1013.16 1013.47 1013.75 1014.09 1014.32 1014.70 1014.90 1015.16 1015.40 1015.60 1015.78 1016.09 1016.21 1016.32 1016.35 1016.55 1016.82 1016.99 1017.02 1016.96 1017.08 1017.07 1017.27 1017.40 1017.55 1017.70 1017.78 1017.81 1017.88 1018.01 1018.01 1018.00 1018.28 1018.44 1018.59 1018.75 1018.57 1018.65 1018.91 1019.05 1019.06 1019.13 1019.18
1013.97 1013.90 1013.80 1014.04 1014.42 1014.62 1014.74 1014.97 1015.15 1015.37 1015.68 1016.03 1016.28 1016.47 1016.62 1016.74 1016.91 1017.08 1017.18 1017.15 1017.11 1017.28 1017.29 1017.46 1017.60 1017.75 1017.89 1017.87 1017.82 1017.97 1018.00 1018.09 1018.16 1018.31 1018.46 1018.50 1018.58 1018.59 1018.77 1019.00 1019.15 1019.20 1019.22
1013.64 1013.96 1014.08 1014.09 1014.39 1014.83 1014.82 1014.97 1014.99 1015.16 1015.46 1015.73 1015.97 1016.39 1016.84 1016.91 1017.00 1017.12 1017.26 1017.30 1017.34 1017.33 1017.30 1017.47 1017.59 1017.72 1017.84 1017.95 1017.94 1017.92 1018.02 1018.01 1018.12 1018.05 1018.21 1018.41 1018.52 1018.58 1018.75 1019.01 1019.27 1019.35 1019.32
1011.86 1012.51 1013.21 1013.81 1013.81 1014.30 1014.45 1014.65 1015.01 1015.28 1015.57 1015.77 1015.91 1016.27 1016.69 1016.94 1017.10 1017.15 1017.25 1017.34 1017.45 1017.45 1017.46 1017.44 1017.52 1017.65 1017.87 1017.94 1017.82 1017.91 1017.91 1017.79 1018.12 1017.94 1017.96 1018.22 1018.37 1018.41 1018.54 1018.79 1019.17 1019.40 1019.47
1011.59 1011.62 1011.98 1012.79 1013.64 1013.62 1014.03 1014.33 1014.70 1015.02 1015.40 1015.72 1015.81 1016.07 1016.55 1016.98 1017.19 1017.13 1017.23 1017.21 1017.30 1017.40 1017.40 1017.49 1017.48 1017.63 1017.81 1017.81 1017.73 1017.74 1017.77 1017.72 1017.81 1017.81 1017.78 1017.80 1018.01 1018.18 1018.27 1018.56 1018.93 1019.24 1019.43
1011.25 1010.74 1011.80 1011.62 1012.49 1013.15 1013.90 1014.11 1014.51 1014.79 1014.81 1014.94 1015.42 1015.80 1016.19 1016.66 1016.91 1016.90 1016.91 1016.94 1017.01 1017.29 1017.32 1017.46 1017.48 1017.49 1017.58 1017.80 1017.65 1017.62 1017.50 1017.45 1017.41 1017.50 1017.77 1017.81 1017.89 1018.07 1018.11 1018.34 1018.70 1018.84 1019.05
1010.34 1010.48 1010.69 1011.63 1012.36 1013.17 1013.68 1013.93 1013.90 1014.14 1014.47 1014.79 1015.19 1015.43 1015.82 1016.12 1016.43 1016.57 1016.64 1016.68 1016.80 1016.97 1017.10 1017.17 1017.35 1017.34 1017.33 1017.47 1017.43 1017.43 1017.21 1017.21 1017.18 1017.17 1017.20 1017.65 1017.65 1017.78 1017.76 1017.95 1018.31 1018.55 1018.64
1009.45 1010.12 1010.79 1010.98 1012.06 1012.76 1013.34 1013.77 1013.74 1013.69 1014.04 1014.39 1014.61 1014.97 1015.33 1015.58 1015.93 1016.17 1016.32 1016.50 1016.41 1016.54 1016.65 1016.95 1017.03 1017.15 1017.30 1017.13 1017.13 1016.93 1016.85 1016.77 1016.58 1016.70 1016.92 1017.23 1017.31 1017.41 1017.66 1017.62 1017.71 1017.99 1018.28
1009.38 1009.87 1010.07 1010.55 1011.36 1011.69 1012.75 1013.27 1013.51 1013.37 1013.78 1014.01 1014.22 1014.41 1014.83 1015.26 1015.60 1015.91 1016.12 1016.18 1015.95 1016.16 1016.23 1016.59 1016.95 1017.00 1016.83 1016.90 1016.93 1016.68 1016.65 1016.38 1016.45 1016.52 1016.62 1016.73 1016.87 1017.09 1017.23 1017.39 1017.30 1017.41 1018.03
1009.01 1009.48 1009.87 1010.19 1011.02 1011.41 1012.25 1012.61 1012.86 1012.92 1013.35 1013.52 1013.80 1014.00 1014.33 1014.73 1015.06 1015.34 1015.47 1015.68 1015.87 1015.90 1016.32 1016.57 1016.72 1016.80 1016.76 1016.77 1016.75 1016.74 1016.80 1016.79 1016.64 1016.34 1016.20 1016.58 1016.64 1016.92 1017.10 1017.01 1017.09 1017.18 1017.51
1009.61 1009.69 1009.84 1010.10 1010.80 1011.37 1011.85 1012.37 1012.37 1012.67 1012.99 1013.36 1013.55 1013.50 1013.75 1014.22 1014.58 1014.97 1015.04 1015.20 1015.29 1015.93 1016.05 1016.54 1016.77 1016.88 1016.94 1017.23 1017.09 1016.81 1016.66 1016.69 1016.54 1016.35 1016.14 1015.93 1016.36 1016.51 1016.73 1017.04 1016.87 1016.89 1017.05
1010.12 1010.33 1010.26 1010.36 1010.27 1011.05 1011.69 1012.01 1012.03 1012.34 1012.84 1012.97 1012.91 1012.84 1013.12 1013.37 1013.85 1014.29 1014.33 1014.73 1015.18 1015.86 1016.61 1017.43 1017.56 1017.28 1017.43 1017.24 1017.15 1016.79 1016.57 1016.37 1016.40 1016.28 1016.14 1016.05 1016.06 1015.87 1016.17 1016.52 1016.76 1016.95 1016.81
1010.47 1010.52 1010.41 1010.30 1010.67 1010.86 1010.99 1010.84 1011.20 1011.85 1012.18 1012.37 1012.49 1012.60 1012.99 1013.32 1013.44 1013.63 1013.87 1014.34 1015.19 1016.25 1016.86 1017.43 1017.56 1017.41 1016.93 1016.97 1017.46 1017.69 1017.25 1016.77 1016.31 1016.02 1015.95 1016.03 1015.92 1015.55 1015.59 1015.83 1016.05 1016.15 1016.71
1012.58 1012.03 1011.54 1011.51 1011.07 1011.06 1010.80 1011.21 1011.28 1011.52 1012.18 1012.69 1012.91 1012.99 1013.34 1013.09 1013.04 1013.23 1013.64 1014.56 1015.44 1015.85 1016.37 1017.04 1017.78 1017.59 1017.25 1016.80 1016.49 1016.70 1017.11 1017.10 1016.87 1016.14 1015.94 1016.16 1015.92 1015.65 1015.60 1015.41 1015.75 1015.82 1016.25
1014.51 1013.74 1013.30 1012.90 1012.15 1011.85 1011.16 1011.94 1012.62 1012.51 1013.16 1013.96 1013.74 1013.75 1013.99 1013.20 1013.06 1013.04 1013.53 1013.90 1014.76 1015.03 1014.65 1014.23 1016.17 1016.40 1015.73 1015.78 1015.51 1015.45 1015.82 1015.98 1016.54 1016.59 1016.29 1016.17 1016.16 1015.87 1015.61 1015.86 1015.77 1015.98 1016.10
1015.16 1014.82 1014.43 1014.06 1013.44 1013.03 1012.09 1012.75 1013.08 1013.57 1014.31 1014.90 1014.50 1014.34 1014.10 1013.80 1013.62 1013.11 1013.74 1014.15 1014.11 1013.94 1013.35 1012.81 1013.98 1013.82 1014.46 1014.17 1014.52 1015.29 1015.99 1016.20 1016.29 1016.65 1016.58 1016.62 1016.34 1016.25 1016.17 1016.47 1016.38 1016.52 1016.63
1016.45 1015.80 1015.68 1015.65 1015.32 1015.12 1014.77 1014.50 1014.43 1014.78 1015.16 1015.23 1015.08 1014.71 1014.91 1014.85 1014.68 1014.30 1013.90 1013.79 1013.65 1013.65 1013.46 1013.05 1012.91 1013.07 1013.45 1014.28 1014.46 1014.61 1015.05 1015.97 1016.16 1016.37 1016.55 1016.54 1016.75 1016.75 1016.80 1016.89 1016.82 1017.05 1017.04
Wind_Speed
5 8 14 15 17 16 16 17 16 16 16 16 16 17 16 17 17 18 17 16 15 16 16 17 17 18 18 18 18 17 16 15 14 14 14 15 15 13 12 11 12 6 12
15 13 15 14 16 17 16 17 16 14 14 15 15 15 15 16 16 16 16 15 14 15 16 16 16 16 16 16 15 15 15 15 14 12 12 12 12 12 12 12 12 9 11
15 14 13 15 15 16 15 15 15 14 14 14 14 14 14 14 15 15 13 13 13 14 14 15 14 14 13 13 13 11 11 14 12 12 12 4 5 12 13 12 12 12 11
15 12 11 16 16 16 16 15 14 13 13 13 13 14 13 13 14 14 12 12 12 12 13 13 13 13 12 10 10 8 6 2 3 9 4 4 7 11 11 12 11 11 11
13 12 11 16 16 17 17 16 14 13 12 13 13 14 13 12 12 11 10 10 10 10 11 11 10 10 10 8 7 5 3 3 8 10 5 5 4 8 10 11 10 10 10
14 8 13 15 14 15 16 16 15 15 13 13 14 13 13 12 11 10 10 9 8 7 8 8 8 8 7 7 5 5 4 10 11 6 4 6 4 11 12 12 11 10 10
12 7 10 14 14 15 16 17 16 15 14 13 14 14 14 12 11 10 9 9 8 6 5 4 4 5 5 4 5 4 5 12 6 5 3 3 2 10 12 11 11 10 10
13 8 9 14 14 14 14 14 14 13 12 12 12 12 12 11 10 10 11 10 9 7 6 4 3 2 1 1 3 4 6 11 7 5 4 4 5 8 10 11 10 10 10
11 9 7 7 11 14 13 12 12 12 11 11 10 10 10 10 9 9 9 9 10 10 8 7 5 5 4 3 0 2 3 7 6 4 6 4 10 8 8 10 10 10 9
11 9 8 5 6 5 6 11 10 10 9 8 9 9 9 9 8 7 7 6 7 7 9 10 8 7 6 6 3 2 1 0 3 5 4 4 11 10 9 9 9 9 9
6 6 9 8 5 5 6 8 10 13 11 9 8 8 7 3 4 7 7 8 7 6 6 6 7 7 7 7 8 5 6 2 2 3 3 11 13 11 11 9 9 9 9
8 10 9 7 8 7 6 5 5 6 5 5 5 4 3 4 4 5 7 10 9 9 7 7 8 8 7 3 3 7 2 3 3 3 2 12 13 12 11 9 9 9 8
13 10 11 11 12 10 7 5 3 3 3 3 5 5 4 3 3 3 2 2 2 8 3 4 4 3 3 4 4 3 4 4 2 2 3 12 14 13 12 11 10 9 8
12 15 13 10 9 9 4 6 5 4 3 4 4 6 4 3 4 4 3 4 3 3 4 4 3 3 4 5 5 6 4 4 2 3 4 12 15 14 13 11 11 10 10
13 13 11 15 12 10 7 6 6 7 7 7 6 6 5 5 5 4 4 4 4 3 3 4 4 4 4 4 5 5 5 5 5 2 2 10 15 13 12 11 12 13 13
14 13 15 13 12 8 9 9 9 7 7 4 4 6 8 6 5 5 5 5 4 4 4 4 4 4 4 4 5 5 7 6 6 5 3 3 12 13 12 12 14 14 15
14 10 9 12 11 9 10 7 7 7 6 6 7 7 8 8 8 6 5 4 5 5 6 4 5 3 4 3 7 5 4 6 6 5 4 4 4 11 11 13 17 17 15
11 9 8 11 14 14 12 8 7 6 5 6 6 5 9 9 7 6 5 5 5 4 4 4 4 4 5 4 4 5 3 4 4 4 3 4 4 4 10 16 17 16 15
11 9 9 9 13 15 13 8 7 6 6 6 4 4 6 8 8 7 6 5 5 4 3 4 3 4 3 3 4 3 3 4 2 3 5 5 5 5 4 12 17 15 15
4 5 6 8 11 13 10 5 4 4 5 4 5 5 7 6 7 7 5 6 5 3 4 1 4 3 1 2 3 0 2 2 3 4 4 4 5 6 6 5 5 7 13
5 5 6 6 10 9 6 5 3 8 3 4 5 7 8 7 6 8 7 5 4 5 4 6 3 0 2 2 3 4 2 3 5 5 3 3 4 5 6 6 4 3 4
5 4 6 7 5 5 5 2 3 3 2 1 1 2 3 5 6 7 8 5 2 6 10 10 7 4 2 2 3 1 4 5 4 3 3 3 6 3 4 5 7 6 3
12 8 7 5 2 3 3 1 1 3 3 3 3 4 7 7 2 5 4 8 8 8 8 6 6 5 4 3 6 4 1 4 1 3 3 1 5 2 2 4 3 4 4
12 12 12 12 10 7 7 6 5 3 4 4 3 3 5 7 8 7 4 9 9 7 9 8 5 7 7 9 3 5 3 4 4 4 2 2 3 2 3 2 2 2 4
11 12 13 13 15 12 11 10 8 10 6 2 3 7 7 6 5 6 7 8 8 6 6 10 8 11 8 4 5 3 1 0 2 3 4 1 3 4 3 4 1 4 4
8 10 11 14 12 11 11 11 12 10 7 7 6 6 5 4 4 4 2 8 8 6 6 6 12 10 6 4 2 2 3 4 3 3 3 2 2 2 2 3 4 3 3
Wind_Direction
178 164 165 158 143 132 130 122 116 114 114 116 118 120 118 112 109 108 107 104 103 103 104 106 104 103 102 100 100 100 101 98 96 93 87 85 87 84 83 80 75 70 85
146 157 166 162 147 138 136 130 122 116 113 116 116 116 115 112 112 112 110 108 106 104 106 109 109 107 106 106 105 105 103 94 87 90 91 92 96 93 96 100 95 86 83
142 154 160 161 151 143 139 131 125 122 120 120 118 116 116 115 118 117 115 112 110 108 111 113 112 109 107 107 108 111 115 107 95 96 100 92 98 100 97 94 93 91 89
144 152 160 160 153 147 143 136 132 129 125 126 126 127 127 128 128 126 126 121 117 114 112 114 115 114 113 111 111 116 128 166 133 124 115 106 103 102 107 101 100 107 97
149 152 160 160 156 152 148 142 137 134 133 135 136 136 137 137 134 134 133 129 125 121 117 116 116 116 114 112 111 112 109 66 166 133 129 128 127 116 109 106 106 105 99
151 142 158 160 156 154 151 146 142 146 146 148 149 149 150 149 145 143 143 142 138 132 124 124 124 120 120 116 100 79 70 112 112 114 134 140 119 129 125 124 116 109 98
150 135 150 159 159 160 158 155 153 156 158 160 161 162 160 159 156 155 157 153 153 154 144 143 133 128 127 122 106 78 47 139 118 114 119 104 159 136 132 126 121 117 107
151 143 154 160 165 163 167 163 159 162 163 167 170 167 166 164 165 172 170 172 167 174 183 196 202 202 175 158 107 82 63 140 129 146 151 148 182 149 138 131 127 122 116
147 144 142 151 170 171 170 166 165 166 169 173 174 171 173 172 175 180 190 187 181 178 197 208 223 251 251 260 44 74 87 132 161 157 167 183 174 165 154 145 136 133 125
144 145 140 145 153 157 163 172 170 170 172 181 181 179 178 181 185 197 202 202 213 200 213 204 214 236 263 280 289 295 247 130 168 186 186 188 184 176 167 162 149 144 139
141 153 165 163 159 152 157 181 178 181 182 185 189 194 192 176 195 207 211 213 222 240 246 222 224 240 262 285 287 280 275 241 235 205 204 200 191 187 178 175 167 161 155
167 188 190 174 175 177 182 188 176 182 177 180 184 189 191 200 203 209 224 225 231 231 231 236 240 245 258 271 288 297 289 245 244 254 201 203 199 196 188 183 187 183 171
163 177 185 191 184 182 189 174 179 178 176 187 182 184 192 207 222 229 221 243 236 239 236 238 252 236 247 256 271 269 271 274 225 247 188 206 205 204 194 192 201 201 194
174 183 182 179 199 193 171 179 179 171 181 201 197 188 178 199 220 227 228 219 223 226 224 229 237 237 245 255 263 279 273 266 233 252 230 218 206 207 199 196 207 215 214
208 177 190 177 184 189 188 179 178 199 200 199 190 195 178 193 213 216 225 215 214 203 216 225 236 247 243 251 266 272 278 257 253 226 218 256 216 207 205 203 216 219 220
211 186 184 178 182 192 202 201 196 195 208 183 190 201 195 199 209 207 223 223 220 200 205 214 223 234 247 236 257 242 256 260 249 238 207 245 210 211 206 210 222 227 222
217 177 174 160 176 187 208 213 205 200 194 201 202 195 198 200 213 214 225 212 219 205 207 200 222 216 254 249 254 241 260 266 245 234 204 197 212 203 223 216 222 229 226
204 153 148 175 192 185 198 196 208 194 199 212 207 189 205 212 202 206 224 223 221 201 193 205 206 220 228 214 250 260 249 280 283 244 209 180 196 199 218 226 227 228 228
207 162 179 181 198 195 202 192 200 194 203 208 203 197 198 208 205 210 217 234 222 211 209 210 230 214 231 251 246 243 254 249 237 222 222 183 197 209 221 232 233 234 227
259 188 182 190 208 204 204 192 187 199 214 208 203 203 207 203 202 203 234 205 214 213 222 154 221 246 309 301 257 266 260 259 270 252 224 200 179 202 219 223 229 227 241
232 254 221 196 202 183 177 184 176 217 190 208 205 210 211 209 202 219 230 226 205 209 349 6 349 231 341 332 10 343 326 282 261 237 244 232 216 207 187 203 208 224 237
228 237 242 221 207 192 200 167 168 146 222 169 156 174 215 217 211 209 212 202 118 71 49 30 20 321 185 195 138 210 322 327 309 317 228 225 238 231 222 190 192 200 218
357 360 27 359 133 151 127 69 124 102 78 37 17 57 28 40 33 221 158 116 99 113 104 80 15 357 301 235 200 162 194 234 297 316 358 275 256 228 204 176 191 171 178
6 12 22 13 28 27 40 60 24 52 64 9 54 45 39 26 24 18 135 134 140 160 154 123 239 223 186 234 201 192 209 162 188 316 13 24 303 333 33 9 152 128 121
14 21 17 22 31 23 34 49 65 69 75 358 47 51 24 32 35 47 126 146 164 198 206 186 183 227 227 182 179 134 144 144 89 152 265 299 46 20 42 60 63 87 79
7 41 22 31 33 29 43 43 54 66 67 67 34 41 25 0 7 16 129 157 185 204 235 209 212 213 232 226 236 157 171 168 191 162 220 198 155 42 31 61 61 51 63